This demonstration page uses our WeatherBlox Daily Observations layout. Learn more.

Left ArrowRight Arrow

39.95238, -75.16362

Hourly Observations for September 13, 2019

Temp ( °F °C ) Dew Point ( °F °C ) Humidity (%) Winds ( mph kmh ) Pressure ( in mb ) Visibility ( mi km ) Precip ( " mm )
12:54 am 00:54 Cloudy 66 18.9 61 16.1 84 84 E 15 24 30.27 1025 10 16 0.00 0.00
1:21 am 01:21 Mostly Cloudy 66 18.9 60 15.6 81 81 E 15 24 30.28 1025 10 16 0.00 0.00
1:54 am 01:54 Cloudy 66 18.9 59 15 78 78 ENE 16 26 30.28 1025 10 16 0.00 0.00
2:32 am 02:32 Cloudy 65 18.3 58 14.4 78 78 ENE 9 15 30.28 1025 10 16 0.00 0.00
2:54 am 02:54 Cloudy 65 18.3 58 14.4 78 78 ENE 9 15 30.28 1025 10 16 0.00 0.00
3:37 am 03:37 Cloudy 64 17.8 57 13.9 78 78 NE 9 15 30.30 1026 10 16 0.00 0.00
3:54 am 03:54 Cloudy 64 17.8 56 13.3 75 75 ENE 8 13 30.29 1026 10 16 0.00 0.00
4:49 am 04:49 Cloudy 64 18 55 13 73 73 NE 13 20 30.32 1027 10 16 0.00 0.00
4:54 am 04:54 Cloudy 64 17.8 55 12.8 73 73 ENE 10 17 30.32 1027 10 16 0.00 0.00
5:54 am 05:54 Cloudy 63 17.2 54 12.2 73 73 ENE 10 17 30.33 1027 10 16 0.00 0.00
6:54 am 06:54 Cloudy 63 17.2 52 11.1 68 68 ENE 12 19 30.35 1028 10 16 0.00 0.00
7:54 am 07:54 Cloudy 63 17.2 53 11.7 70 70 NE 12 19 30.38 1029 10 16 0.00 0.00
8:54 am 08:54 Cloudy 64 17.8 53 11.7 68 68 ENE 9 15 30.40 1030 10 16 0.00 0.00
9:54 am 09:54 Cloudy 66 18.9 54 12.2 65 65 NE 12 19 30.41 1030 10 16 0.00 0.00
10:54 am 10:54 Cloudy 67 19.4 55 12.8 66 66 ENE 12 19 30.42 1030 10 16 0.00 0.00
11:09 am 11:09 Cloudy 67 19.4 55 12.8 66 66 NE 13 20 30.42 1030 10 16 0.00 0.00
11:42 am 11:42 Cloudy 68 20 55 12.8 63 63 E 13 20 30.43 1030 10 16 0.00 0.00
11:54 am 11:54 Cloudy 68 20 55 12.8 63 63 E 12 19 30.42 1030 10 16 0.00 0.00
12:54 pm 12:54 Cloudy 68 20 53 11.7 59 59 E 16 26 30.43 1031 10 16 0.00 0.00
1:54 pm 13:54 Cloudy 72 22.2 51 10.6 48 48 ESE 16 26 30.42 1030 10 16 0.00 0.00
2:54 pm 14:54 Cloudy 71 21.7 52 11.1 51 51 E 13 20 30.42 1030 10 16 0.00 0.00
3:54 pm 15:54 Cloudy 70 21.1 50 10 49 49 E 16 26 30.42 1030 10 16 0.00 0.00
4:54 pm 16:54 Cloudy 69 20.6 51 10.6 53 53 E 17 28 30.42 1030 10 16 0.00 0.00
5:54 pm 17:54 Mostly Cloudy 69 20.6 52 11.1 55 55 E 13 20 30.42 1030 10 16 0.00 0.00
6:54 pm 18:54 Mostly Cloudy 68 20 51 10.6 55 55 E 16 26 30.40 1030 10 16 0.00 0.00
7:54 pm 19:54 Mostly Cloudy 66 18.9 51 10.6 59 59 ESE 10 17 30.41 1030 10 16 0.00 0.00
8:54 pm 20:54 Mostly Cloudy 65 18.3 51 10.6 61 61 E 9 15 30.42 1030 10 16 0.00 0.00
9:54 pm 21:54 Mostly Cloudy 65 18.3 51 10.6 61 61 E 8 13 30.41 1030 10 16 0.00 0.00
10:54 pm 22:54 Partly Cloudy 64 17.8 52 11.1 65 65 E 9 15 30.40 1029 10 16 0.00 0.00
11:54 pm 23:54 Partly Cloudy 63 17.2 52 11.1 68 68 E 7 11 30.39 1029 10 16 0.00 0.00

Powered by AerisWeather